Volver al catálogo

STARLINK-33670

ActivoComunicacionesVLEO
NORAD 63413·PAYLOAD·🇺🇸 United States

Lanzado Mar 31, 2025 desde Cape Canaveral Space Force Station

Loading…

Próximos Pases (próximas 24 horas)

TLE

ActualizadoSource: CelesTrak SupGP

Época: Sep 14, 2026, 22:44 UTC

1 63413C 25065Q   26257.94770833 -.00014888  00000+0 -53940-3 0  2579
2 63413  43.0023 118.1020 0001412 271.6969 166.2880 15.27575351    15

Sigue STARLINK-33670 en tiempo real con AllMySat

Download on the App Store